星链-31769 (STARLINK-31769 )

导读

STARLINK-31769是美国SpaceX星链互联网卫星星座中的一员,于北京时间2024年4月28日8时发射升空,延续星链项目低轨卫星互联网组网部署节奏。该卫星承担星链星座全球宽带覆盖任务,依托低轨布局为全球偏远地区、移动场景提供高速互联网接入服务,服务覆盖海事、航空等特殊领域,支撑SpaceX持续推进近地轨道巨型星座构建。

Basic Information
目录编号:
59617
目录名称:
STARLINK-31769
国际标识:
2024-080S
轨道中心:
EARTH
卫星名称:
星链-31769
卫星全名:
星链-31769 (STARLINK-31769 )
卫星状态:
在轨 (已飞行867 天)
发射日期:
2024-04-28 UTC
国别 :
美国 (US)
星等 :
--
This satellite is enrolled in the Space Conjunction Data Service (SCDS) and the current flight risk assessment level is: High Risk
Orbit Information
数据来源 国际轨道数据
星历时间: 2026-09-11T21:11:46+0800
12小时前
查看轨道信息
半长轴: 6861.205km
偏心率: 0.000181
轨道倾角: 43.005°
近地点辐角 273.267°
升交点赤经 68.602°
平近点角 86.798°
近地点: 481.826km
远地点: 484.31km
周期: 94.267分钟
每日圈数: 15.275739
Detailed Information
固有亮度:
5
最大亮度:
1.5
卫星平台:
Starlink v2.0 mini
覆盖范围:
全球
运营商:
太空探索技术公司
运营商所在国:
美国
制造商(研发单位):
太空探索技术公司
制造商所在国:
美国
使用方式:
暂无
Satellite Introduction
星链(Starlink)计划是由太空探索技术公司(SpaceX)提出的一个巨型低轨卫星互联网星座项目,计划在2019年至2024年间在太空搭建由约1.2万颗卫星组成的“星链”网络,其中1584颗将部署在地球上空550千米处的近地轨道,并从2020年开始工作。该卫星仍在工作。
2D Orbit Map
3D Orbit Map
Orbit Altitude Analysis Chart
Orbit Inclination Analysis Chart
Orbit Comprehensive Analysis Chart
View Comprehensive Chart
Conjunction Data List
Event ID Objects TCA Miss Dist (km) Collision Risk Probability Collision Risk Index (CRI) Action
CDM_260912-233005-961706-212321
2026-09-12T
23:30:10+0000
0.191 km
中距离
6.801278E-4 高风险 0.92
CDM_260913-111605-961706-212321
2026-09-13T
11:16:19+0000
0.727 km
远距离
4.991157E-5 中风险 0.69
CDM_260913-154005-961706-732521
2026-09-13T
15:40:51+0000
0.884 km
远距离
2.243763E-5 中风险 0.62
CDM_260913-172305-961706-379121
2026-09-13T
17:23:51+0000
0.739 km
远距离
1.559854E-5 中风险 0.59
CDM_260913-224405-961706-732521
2026-09-13T
22:44:32+0000
1.261 km
极远距离
6.606341E-6 低风险 0.51
CDM_260913-150205-961706-379121
2026-09-13T
15:02:37+0000
0.970 km
远距离
6.210073E-6 低风险 0.51
CDM_260914-055105-961706-400321
2026-09-14T
05:51:44+0000
1.311 km
极远距离
4.063179E-6 低风险 0.47
CDM_260914-094705-961706-400321
2026-09-14T
09:47:07+0000
1.453 km
极远距离
2.922448E-6 低风险 0.44
CDM_260914-081205-961706-400321
2026-09-14T
08:12:58+0000
1.691 km
极远距离
1.863041E-6 低风险 0.4
CDM_260913-211005-961706-732521
2026-09-13T
21:10:23+0000
1.914 km
极远距离
1.856931E-6 低风险 0.4
Miss Distance Evolution Trend with All Objects
Collision Probability Evolution Trend with All Objects